Weather History for KELN - December, 2012

Change the Weather History Date:

Wednesday, December 5, 2012

  Actual Average (KYKM) Record (KYKM)
Temperature  
Mean Temperature 39 °F 30 °F  
Max Temperature 45 °F 38 °F 58 °F (1991)
Min Temperature 30 °F 22 °F 1 °F (1984)
Degree Days  
Heating Degree Days 26 35  
Month to date heating degree days 170  
Since 1 July heating degree days 1703  
Cooling Degree Days 0 0  
Month to date cooling degree days 0  
Year to date cooling degree days 472  
Moisture  
Dew Point 27 °F    
Average Humidity 64    
Maximum Humidity 82    
Minimum Humidity 46    
Precipitation  
Precipitation 0.00 in 0.05 in 0.35 in (1956)
Month to date precipitation 0.25  
Year to date precipitation 6.97  
Snow  
Snow 0.00 in 0.30 in 4.50 in (1956)
Month to date snowfall 1.4  
Year to date snowfall 13.6  
Since 1 July snowfall 5.0  
Snow Depth -    
Sea Level Pressure  
Sea Level Pressure 30.08 in    
Wind  
Wind Speed 15 mph (NW)    
Max Wind Speed 23 mph    
Max Gust Speed 30 mph    
Visibility 10 miles    
Events      
T = Trace of Precipitation, MM = Missing Value Source: NWS Daily Summary

Daily Weather History Graph

Daily Weather History Graph

Search for Another Location

Airport or City:

Trip Planner

Search our weather history database for the weather conditions in past years. The results will help you decide how hot, cold, wet, or windy it might be!

Date:

Astronomy

Dec. 05, 2012 Rise Set
Actual Time 7:32 AM PST 4:13 PM PST
Civil Twilight 6:57 AM PST 4:48 PM PST
Nautical Twilight 6:19 AM PST 5:26 PM PST
Astronomical Twilight 5:42 AM PST 6:03 PM PST
Moon 11:28 PM PST (12/5) 11:40 AM PST (12/5)
Length of Visible Light 9h 50m
Length of Day
8h 40m
Waning Gibbous, 58% of the Moon is Illuminated
Dec 5
Waning Gibbous
Dec 6
Last Quarter
Dec 13
New
Dec 19
First Quarter
Dec 28
Full

Hourly Weather History & Observations

Time (PST) Temp. Windchill Dew Point Humidity Pressure Visibility Wind Dir Wind Speed Gust Speed Precip Events Conditions
12:53 AM 43.0 °F 34.2 °F 33.1 °F 68% 29.77 in 10.0 mi NW 20.7 mph 24.2 mph N/A   Clear
1:53 AM 42.1 °F 32.6 °F 33.1 °F 70% 29.79 in 10.0 mi NW 23.0 mph 28.8 mph N/A   Overcast
2:53 AM 41.0 °F 33.1 °F 30.0 °F 65% 29.85 in 10.0 mi NW 15.0 mph - N/A   Mostly Cloudy
3:53 AM 39.9 °F 30.5 °F 26.1 °F 58% 29.90 in 10.0 mi NW 19.6 mph - N/A   Partly Cloudy
4:53 AM 37.9 °F 29.6 °F 26.1 °F 62% 29.94 in 10.0 mi WNW 13.8 mph 17.3 mph N/A   Clear
6:53 AM 35.1 °F 29.3 °F 27.0 °F 72% 30.00 in 10.0 mi WSW 6.9 mph - N/A   Clear
7:53 AM 37.9 °F 28.9 °F 28.9 °F 70% 30.04 in 10.0 mi NW 16.1 mph - N/A   Clear
8:53 AM 39.9 °F 30.8 °F 28.0 °F 63% 30.07 in 10.0 mi WNW 18.4 mph 23.0 mph N/A   Clear
9:53 AM 42.1 °F 33.9 °F 28.9 °F 60% 30.11 in 10.0 mi NW 17.3 mph 23.0 mph N/A   Clear
10:53 AM 44.1 °F 35.2 °F 26.1 °F 49% 30.12 in 10.0 mi NW 23.0 mph 29.9 mph N/A   Clear
11:53 AM 45.0 °F 37.1 °F 25.0 °F 46% 30.13 in 10.0 mi NW 19.6 mph - N/A   Clear
12:53 PM 43.0 °F 35.1 °F 25.0 °F 49% 30.14 in 10.0 mi NW 17.3 mph - N/A   Scattered Clouds
1:53 PM 45.0 °F 38.2 °F 25.0 °F 46% 30.14 in 10.0 mi NW 15.0 mph - N/A   Overcast
2:53 PM 42.1 °F 36.1 °F 27.0 °F 55% 30.15 in 10.0 mi NNW 10.4 mph - N/A   Mostly Cloudy
3:53 PM 41.0 °F 35.8 °F 27.0 °F 57% 30.17 in 10.0 mi NW 8.1 mph - N/A   Mostly Cloudy
4:53 PM 39.0 °F 34.0 °F 27.0 °F 62% 30.19 in 10.0 mi NNW 6.9 mph - N/A   Overcast
5:53 PM 35.1 °F 31.0 °F 25.0 °F 67% 30.20 in 10.0 mi WNW 4.6 mph - N/A   Scattered Clouds
6:53 PM 35.1 °F - 26.1 °F 70% 30.20 in 10.0 mi Calm Calm - N/A   Mostly Cloudy
7:53 PM 34.0 °F - 27.0 °F 75% 30.20 in 10.0 mi Calm Calm - N/A   Overcast
8:53 PM 34.0 °F 31.0 °F 27.0 °F 75% 30.20 in 10.0 mi NNE 3.5 mph - N/A   Mostly Cloudy
9:53 PM 34.0 °F - 27.0 °F 75% 30.19 in 10.0 mi Calm Calm - N/A   Overcast
10:53 PM 33.1 °F 30.0 °F 27.0 °F 78% 30.17 in 10.0 mi East 3.5 mph - N/A   Mostly Cloudy
11:53 PM 30.9 °F 27.5 °F 26.1 °F 82% 30.17 in 10.0 mi NNE 3.5 mph - N/A   Clear